www.pogodaiklimat.ru

ПОГОДА в Ильичёвске

  • Прогноз погоды в Ильичёвске
  • Монитор погоды в Ильичёвске
  • Климат города

АРХИВ ПОГОДЫ в Ильичёвске

Время (UTC), дата Ветер
(напр.,м/с)
 
Видим.   Явления Облачность Т
(С)
Тd
(С)
f
(%)
Тe
(С)
Тes
(С)
Комфортность P
(гПа)
Po
(гПа)
Тmin
(С)
Tmax
(С)
R
(мм)
S
(см)
12 23.08 В 1 н/о 7 баллов +28.1 +22.8 73 +37 1012.7 1006.7 0.0
15 23.08 С 2 н/о 9 баллов +29.9 +19.6 54 +36 1012.6 1006.7
18 23.08 СЗ 2 10 км {ливн. осадки} 9/9 570 м
[Cb cap]
+28.3 +21.4 66 +36 +36 очень
душно
1011.9 1012.0 +32.0 0.0
21 23.08 В 1 н/о 4 балла +26.2 +21.2 74 +33 +33 очень
душно
1012.7 1006.7
00 24.08 штиль 0 10 км ясно +24.7 +21.2 81 +31 +31 очень
душно
1012.2 1012.0
03 24.08 СЗ 3 н/о 4 балла +23.4 +19.3 78 +30 +30 очень
душно
1014.1 1008.0
06 24.08 СЗ 3 н/о 8 баллов +24.4 +18.6 70 +29 +30 душно 1015.3 1009.3
09 24.08 СЗ 4 н/о 3 балла +28.3 +18.1 54 +33 +39 очень
душно
1015.3 1009.3
12 24.08 З 7 н/о 6 баллов +28.9 +17.7 51 +33 +34 очень
душно
1013.9 1008.0
15 24.08 СЗ 8 н/о слабый ливневой дождь н/о +23.8 +18.7 73 +28 1015.4 1009.3
18 24.08 СЗ 5 н/о 2 балла +23.2 +17.6 71 +29 1016.8 1010.7 0.0
21 24.08 СЗ 3 н/о ясно +21.0 +16.8 77 +25 +25 комфорт 1016.8 1010.7
00 25.08 СЗ 4 10 км ясно +19.6 +15.4 77 +22 +22 комфорт 1015.8 1016.0
03 25.08 СЗ 3 н/о 1 балл +18.4 +15.1 81 +19 +19 1018.2 1012.0
06 25.08 СЗ 4 н/о 8 баллов +18.6 +14.9 79 +19 +20 1018.2 1012.0
09 25.08 ЮВ 5 н/о 5 баллов +23.7 +15.7 61 +27 +30 жарко 1018.1 1012.0
12 25.08 В 8 30 км 5/5 600 м
[Cu med, cong]
+26.4 +13.7 46 +29 +30 жарко 1016.1 1016.0
15 25.08 ЮВ 6 н/о 7 баллов +26.4 +11.3 39 +28 +28 жарко 1018.0 1012.0
18 25.08 С 2 н/о 4 балла +24.4 +12.3 47 +26 +26 жарко 1019.4 1013.3
21 25.08 С 5 н/о ясно +22.2 +13.3 57 +25 +25 комфорт 1019.4 1013.3
00 26.08 С 4 10 км ясно +19.5 +12.4 64 +21 +21 комфорт 1018.6 1019.0
03 26.08 С 5 н/о ясно +18.8 +12.1 65 +19 +19 1020.9 1014.7
06 26.08 В 5 н/о 3 балла +21.4 +13.3 60 +24 +26 комфорт 1020.8 1014.7
09 26.08 В 5 н/о 4 балла +25.0 +14.1 51 +27 +32 жарко 1020.8 1014.7
12 26.08 СВ 4 30 км 6/5 600 м
[Cu med, cong Ci sp]
+26.9 +11.3 38 +28 +31 жарко 1019.3 1019.0
15 26.08 СВ 2 н/о 5 баллов +25.6 +15.6 54 +29 +30 душно 1020.7 1014.7
18 26.08 СВ 2 н/о 7 баллов +25.4 +12.2 44 +27 +27 жарко 1020.8 1014.7
21 26.08 СВ 2 н/о 7 баллов +23.6 +13.7 54 +26 +26 жарко 1022.1 1016.0
00 27.08 СЗ 3 н/о в посл. час ливневой дождь н/о +22.2 +14.1 60 +25 1022.1 1016.0 0.0
03 27.08 СЗ 2 н/о 9 баллов +21.0 +15.5 71 +25 +25 комфорт 1022.2 1016.0
06 27.08 З 2 н/о 7 баллов +22.0 +13.6 59 +25 +26 комфорт 1022.1 1016.0 0.0
09 27.08 Ю 5 н/о 7 баллов +27.0 +14.0 45 +29 +31 жарко 1022.0 1016.0
12 27.08 СВ 1 30 км 6/3 600 м
[Cu med, cong As trans Ci fib]
+28.1 +16.0 48 +31 +38 душно 1019.6 1020.0
15 27.08 СВ 2 н/о 7 баллов +26.2 +19.1 65 +31 +32 очень
душно
1020.7 1014.7
18 27.08 С 2 н/о 7 баллов +26.0 +18.4 63 +31 +31 очень
душно
1020.7 1014.7
21 27.08 СВ 3 н/о 6 баллов +25.6 +17.8 62 +30 +30 душно 1020.7 1014.7
00 28.08 СВ 4 10 км ясно +23.5 +17.0 67 +27 +27 душно 1018.4 1018.0
03 28.08 С 3 н/о 3 балла +22.0 +16.5 71 +26 +26 душно 1019.4 1013.3
06 28.08 СВ 3 н/о ясно +23.6 +16.1 63 +27 +31 жарко 1020.8 1014.7
09 28.08 СВ 4 н/о 1 балл +27.6 +15.9 49 +31 +39 душно 1020.7 1014.7
12 28.08 В 1 29 км 3/3 600 м
[Cu med, cong Ac trans Cc]
+30.1 +16.0 43 +33 +42 душно 1017.8 1018.0
15 28.08 штиль 0 н/о 4 балла +29.5 +15.9 44 +33 +34 душно 1018.0 1012.0
18 28.08 штиль 0 2 балла +18.5 79 1018.5 1013.3
21 28.08 СЗ 1 н/о ясно +24.0 +20.1 79 +30 +30 очень
душно
1018.1 1012.0
00 29.08 СЗ 3 10 км 5/5 600 м
[Sc]
+25.0 +17.1 62 +29 +29 душно 1015.7 1016.0
03 29.08 СВ 2 н/о 7 баллов +23.4 +20.1 82 +31 +31 очень
душно
1016.8 1010.7
06 29.08 Ю 2 15 км слабый ливневой дождь 9/9 600 м
[Cb cap]
+23.3 +18.7 75 +29 +30 душно 1016.9 1017.0 +23.1 0.0
09 29.08 Ю 2 н/о 8 баллов +24.6 +20.5 78 +31 1016.7 1010.7
12 29.08 СВ 4 н/о 3 балла +28.4 +23.7 76 +39 1015.3 1009.3 2.0
15 29.08 СЗ 3 н/о в посл. час гроза н/о +25.2 +21.9 82 +32 1015.3 1009.3
18 29.08 З 2 н/о 2 балла +24.2 +21.1 83 +31 1014.0 1008.0 2.0
21 29.08 Ю 2 н/о слабый ливневой дождь н/о +22.2 +18.4 79 +27 1015.4 1009.3
00 30.08 СВ 4 н/о в посл. час гроза н/о +23.2 +18.3 74 +29 1014.1 1008.0 6.0
03 30.08 СЗ 2 н/о 7 баллов +21.4 +15.9 71 +25 +25 комфорт 1012.8 1006.7
06 30.08 С 1 н/о 5 баллов +23.4 +18.5 74 +30 1014.1 1008.0 6.0
09 30.08 В 1 н/о 6 баллов +25.0 +20.3 75 +31 +37 очень
душно
1014.0 1008.0

 

Местоположение метеостанции Ильичевск (Одесская область, Украина): широта 46.40 долгота 30.70 высота над уровнем моря 52 м.

В архиве по умолчанию представлена погода в Ильичёвске за последнюю неделю. Архивные данные за месяц целиком и за предыдущие месяцы, начиная с января 2011 года, Вы можете получить, выбрав интересующий диапазон дат из раскрывающегося списка и нажав кнопку "Ввод!".

Внимание! Время в таблицах - всемирное. Для получения местного времени необходимо прибавить поправку, которая в Ильичёвске равна 2 ч.

Ветер - указаны скорость ветра в м/с - средняя за 10 мин, порывы в срок и между сроками (в фигурных скобках) и направление, откуда дует ветер: С - северный, СВ - северо-восточный, В - восточный, ЮВ - юго-восточный, Ю - южный, ЮЗ - юго-западный, З - западный, СЗ - северо-западный.
Видимость - горизонтальная дальность видимости в метрах или километрах. При видимости от 1 до 10 км при отсутствии осадков обычно наблюдается дымка, при ухудшении видимости до 1 км и менее - туман. В сухую погоду видимость может ухудшаться дымом, пылью или мглою.
Явления - указаны атмосферные явления, наблюдавшиеся в срок или в последний час перед сроком; фигурными скобками обозначены явления, наблюдавшиеся между сроками (за 1-3 часа до срока); квадратными скобками обозначены град или гололедные отложения с указанием их диаметра в мм.
Облачность - указаны через наклонную черту общая и нижняя облачность в баллах и высота нижней границы облаков в метрах; квадратными скобками обозначены формы облаков: Ci - перистые, Cs - перисто-слоистые, Cc - перисто-кучевые, Ac - высококучевые, As - высокослоистые, Sc - слоисто-кучевые, Ns - слоисто-дождевые, Cu - кучевые, Cb - кучево-дождевые. Подробнее классификацию облаков см. в Атласе облаков (PDF).
T - Температура воздуха - температура, измеренная на высоте 2 м над землей.
Td - Температура точки росы - температура, при понижении до которой содержащийся в воздухе водяной пар достигнет насыщения.
f - Относительная влажность воздуха - влажноcть воздуха, измеренная на высоте 2 м над землей.
Te - Эффективная температура - температура, которую ощущает одетый по сезону человек в тени. Характеристика душности погоды. При расчете учитывается влияние влажности воздуха и скорости ветра на теплоощущения человека.
Tes - Эффективная температура на солнце - температура, которую ощущает человек, с поправкой на солнечный нагрев. Характеристика знойности погоды. Зависит от высоты солнца над горизонтом, облачности и скорости ветра. Ночью, в пасмурную погоду, а также при ветре 12 м/с и более поправка равна нулю.
P - Атмосферное давление - приведенное к уровню моря атмосферное давление.
Po - Атмосферное давление - измеренное на уровне метеостанции атмосферное давление.
Tmin - Минимальная температура - минимум температуры воздуха на высоте 2 м над землей.
Tmax - Максимальная температура - максимум температуры воздуха на высоте 2 м над землей.
R - Количество осадков - Количество выпавших осадков, мм. При наведении курсора мыши на число - период времени, за который выпало указанное количество осадков.
S - Снежный покров - Высота снежного покрова, см. При наведении курсора мыши на число - состояние снежного покрова и степень покрытия местности в баллах.